Time,TemperatureF,DewpointF,PressureIn,WindDirection,WindDirectionDegrees,WindSpeedMPH,WindSpeedGustMPH,Humidity,HourlyPrecipIn,Conditions,Clouds,dailyrainin,SoftwareType,DateUTC
2013-01-01 00:07:00,39.0,37.0,30.48,WSW,246,2.0,3.0,93,0.00,,,0.00,weatherlink.com 1.10,2013-01-01 08:07:00,
2013-01-01 00:22:00,39.2,37.0,30.48,West,265,0.0,6.0,93,0.00,,,0.00,weatherlink.com 1.10,2013-01-01 08:22:00,
2013-01-01 00:37:00,39.2,37.0,30.48,West,274,0.0,1.0,93,0.00,,,0.00,weatherlink.com 1.10,2013-01-01 08:37:00,
2013-01-01 00:52:00,39.2,37.0,30.48,WSW,245,0.0,3.0,93,0.00,,,0.00,weatherlink.com 1.10,2013-01-01 08:52:00,
2013-01-01 01:07:00,39.2,37.0,30.48,WSW,242,0.0,2.0,93,0.00,,,0.00,weatherlink.com 1.10,2013-01-01 09:07:00,
2013-01-01 01:22:00,39.1,37.0,30.48,SW,227,0.0,1.0,93,0.00,,,0.00,weatherlink.com 1.10,2013-01-01 09:22:00,
2013-01-01 01:37:00,39.1,37.0,30.48,SW,227,0.0,2.0,93,0.00,,,0.00,weatherlink.com 1.10,2013-01-01 09:37:00,
2013-01-01 01:52:00,39.1,37.0,30.49,WSW,258,1.0,2.0,93,0.00,,,0.00,weatherlink.com 1.10,2013-01-01 09:52:00,
2013-01-01 02:07:00,39.2,37.0,30.49,WSW,258,0.0,1.0,93,0.00,,,0.00,weatherlink.com 1.10,2013-01-01 10:07:00,
2013-01-01 02:22:00,39.1,37.0,30.50,WSW,258,0.0,2.0,93,0.00,,,0.00,weatherlink.com 1.10,2013-01-01 10:22:00,
2013-01-01 02:37:00,39.0,38.0,30.50,WSW,258,0.0,2.0,94,0.00,,,0.00,weatherlink.com 1.10,2013-01-01 10:37:00,
2013-01-01 02:52:00,38.8,37.0,30.49,East,89,1.0,5.0,94,0.00,,,0.00,weatherlink.com 1.10,2013-01-01 10:52:00,
2013-01-01 03:07:00,38.8,37.0,30.48,East,89,0.0,1.0,94,0.00,,,0.00,weatherlink.com 1.10,2013-01-01 11:07:00,
2013-01-01 03:22:00,38.5,37.0,30.48,East,89,0.0,1.0,94,0.00,,,0.00,weatherlink.com 1.10,2013-01-01 11:22:00,
2013-01-01 03:37:00,38.4,37.0,30.48,East,89,1.0,3.0,94,0.00,,,0.00,weatherlink.com 1.10,2013-01-01 11:37:00,
2013-01-01 03:52:00,38.4,37.0,30.48,East,89,1.0,2.0,94,0.00,,,0.00,weatherlink.com 1.10,2013-01-01 11:52:00,
2013-01-01 04:07:00,38.3,37.0,30.47,East,89,0.0,2.0,94,0.00,,,0.00,weatherlink.com 1.10,2013-01-01 12:07:00,
2013-01-01 04:22:00,38.2,37.0,30.47,East,89,0.0,2.0,94,0.00,,,0.00,weatherlink.com 1.10,2013-01-01 12:22:00,
2013-01-01 04:37:00,38.2,37.0,30.47,East,89,0.0,1.0,94,0.00,,,0.00,weatherlink.com 1.10,2013-01-01 12:37:00,
2013-01-01 04:52:00,38.2,36.0,30.46,East,89,0.0,1.0,93,0.00,,,0.00,weatherlink.com 1.10,2013-01-01 12:52:00,
2013-01-01 05:07:00,38.2,36.0,30.46,East,89,0.0,0.0,93,0.00,,,0.00,weatherlink.com 1.10,2013-01-01 13:07:00,
2013-01-01 05:22:00,38.3,36.0,30.46,East,89,0.0,1.0,92,0.00,,,0.00,weatherlink.com 1.10,2013-01-01 13:22:00,
2013-01-01 05:37:00,38.5,36.0,30.46,East,95,0.0,2.0,92,0.00,,,0.00,weatherlink.com 1.10,2013-01-01 13:37:00,
2013-01-01 05:52:00,38.8,37.0,30.48,West,264,3.0,4.0,92,0.00,,,0.00,weatherlink.com 1.10,2013-01-01 13:52:00,
2013-01-01 06:07:00,38.9,37.0,30.48,East,94,2.0,5.0,92,0.00,,,0.00,weatherlink.com 1.10,2013-01-01 14:07:00,
2013-01-01 06:22:00,38.5,36.0,30.48,ESE,120,1.0,5.0,92,0.00,,,0.00,weatherlink.com 1.10,2013-01-01 14:22:00,
2013-01-01 06:37:00,37.9,36.0,30.48,East,86,3.0,7.0,92,0.00,,,0.00,weatherlink.com 1.10,2013-01-01 14:37:00,
2013-01-01 06:52:00,37.2,35.0,30.48,East,79,3.0,7.0,93,0.00,,,0.00,weatherlink.com 1.10,2013-01-01 14:52:00,
2013-01-01 07:07:00,36.9,35.0,30.48,East,81,2.0,4.0,93,0.00,,,0.00,weatherlink.com 1.10,2013-01-01 15:07:00,
2013-01-01 07:22:00,36.6,35.0,30.49,ENE,68,3.0,4.0,93,0.00,,,0.00,weatherlink.com 1.10,2013-01-01 15:22:00,
2013-01-01 07:37:00,36.2,34.0,30.49,NE,55,0.0,3.0,93,0.00,,,0.00,weatherlink.com 1.10,2013-01-01 15:37:00,
2013-01-01 07:52:00,35.9,34.0,30.49,East,79,0.0,3.0,93,0.00,,,0.00,weatherlink.com 1.10,2013-01-01 15:52:00,
2013-01-01 08:07:00,35.7,34.0,30.50,East,81,0.0,0.0,93,0.00,,,0.00,weatherlink.com 1.10,2013-01-01 16:07:00,
2013-01-01 08:22:00,35.8,34.0,30.49,ENE,74,1.0,3.0,93,0.00,,,0.00,weatherlink.com 1.10,2013-01-01 16:22:00,
2013-01-01 08:37:00,35.7,34.0,30.50,East,84,0.0,2.0,92,0.00,,,0.00,weatherlink.com 1.10,2013-01-01 16:37:00,
2013-01-01 08:52:00,35.8,34.0,30.50,East,93,0.0,2.0,93,0.00,,,0.00,weatherlink.com 1.10,2013-01-01 16:52:00,
2013-01-01 09:07:00,36.3,34.0,30.50,ENE,70,0.0,2.0,92,0.00,,,0.00,weatherlink.com 1.10,2013-01-01 17:07:00,
2013-01-01 09:23:00,36.6,35.0,30.51,East,79,0.0,3.0,92,0.00,,,0.00,weatherlink.com 1.10,2013-01-01 17:23:00,
2013-01-01 09:38:00,36.9,35.0,30.52,SSE,157,0.0,4.0,91,0.00,,,0.00,weatherlink.com 1.10,2013-01-01 17:38:00,
2013-01-01 09:53:00,36.9,35.0,30.52,NE,54,1.0,7.0,91,0.00,,,0.00,weatherlink.com 1.10,2013-01-01 17:53:00,
2013-01-01 10:08:00,36.9,35.0,30.53,ENE,74,0.0,3.0,91,0.00,,,0.00,weatherlink.com 1.10,2013-01-01 18:08:00,
2013-01-01 10:23:00,36.9,34.0,30.52,East,92,3.0,6.0,90,0.00,,,0.00,weatherlink.com 1.10,2013-01-01 18:23:00,
2013-01-01 10:38:00,37.9,34.0,30.52,ENE,68,3.0,5.0,87,0.00,,,0.00,weatherlink.com 1.10,2013-01-01 18:38:00,
2013-01-01 10:53:00,37.8,35.0,30.51,East,82,2.0,8.0,88,0.00,,,0.00,weatherlink.com 1.10,2013-01-01 18:53:00,
2013-01-01 11:08:00,38.0,36.0,30.50,East,90,5.0,8.0,91,0.00,,,0.00,weatherlink.com 1.10,2013-01-01 19:08:00,
2013-01-01 11:23:00,38.3,36.0,30.50,ENE,66,5.0,10.0,90,0.00,,,0.00,weatherlink.com 1.10,2013-01-01 19:23:00,
2013-01-01 11:38:00,38.9,36.0,30.50,East,87,6.0,7.0,90,0.00,,,0.00,weatherlink.com 1.10,2013-01-01 19:38:00,
2013-01-01 11:53:00,38.3,34.0,30.50,NE,40,5.0,10.0,84,0.00,,,0.00,weatherlink.com 1.10,2013-01-01 19:53:00,
2013-01-01 12:08:00,38.6,34.0,30.50,East,92,6.0,10.0,84,0.00,,,0.00,weatherlink.com 1.10,2013-01-01 20:08:00,
2013-01-01 12:23:00,39.0,34.0,30.49,NE,42,0.0,8.0,81,0.00,,,0.00,weatherlink.com 1.10,2013-01-01 20:23:00,
2013-01-01 12:38:00,38.7,34.0,30.48,East,80,3.0,7.0,83,0.00,,,0.00,weatherlink.com 1.10,2013-01-01 20:38:00,
2013-01-01 12:53:00,38.6,35.0,30.48,NE,45,2.0,5.0,85,0.00,,,0.00,weatherlink.com 1.10,2013-01-01 20:53:00,
2013-01-01 13:08:00,38.5,35.0,30.48,East,89,1.0,5.0,86,0.00,,,0.00,weatherlink.com 1.10,2013-01-01 21:08:00,
2013-01-01 13:23:00,38.4,35.0,30.48,SE,128,4.0,7.0,87,0.00,,,0.00,weatherlink.com 1.10,2013-01-01 21:23:00,
2013-01-01 13:38:00,38.2,35.0,30.47,East,80,0.0,7.0,88,0.00,,,0.00,weatherlink.com 1.10,2013-01-01 21:38:00,
2013-01-01 13:53:00,37.9,35.0,30.47,East,97,5.0,8.0,88,0.00,,,0.00,weatherlink.com 1.10,2013-01-01 21:53:00,
2013-01-01 14:08:00,38.0,35.0,30.47,East,89,2.0,7.0,89,0.00,,,0.00,weatherlink.com 1.10,2013-01-01 22:08:00,
2013-01-01 14:23:00,37.9,35.0,30.47,East,96,3.0,8.0,90,0.00,,,0.00,weatherlink.com 1.10,2013-01-01 22:23:00,
2013-01-01 14:38:00,37.6,35.0,30.47,NE,40,4.0,7.0,90,0.00,,,0.00,weatherlink.com 1.10,2013-01-01 22:38:00,
2013-01-01 14:53:00,37.6,35.0,30.47,East,92,3.0,5.0,89,0.00,,,0.00,weatherlink.com 1.10,2013-01-01 22:53:00,
2013-01-01 15:08:00,37.8,35.0,30.47,ENE,64,1.0,2.0,89,0.00,,,0.00,weatherlink.com 1.10,2013-01-01 23:08:00,
2013-01-01 15:23:00,37.7,35.0,30.47,NE,54,0.0,2.0,90,0.00,,,0.00,weatherlink.com 1.10,2013-01-01 23:23:00,
2013-01-01 15:38:00,37.5,35.0,30.47,NE,54,0.0,2.0,90,0.00,,,0.00,weatherlink.com 1.10,2013-01-01 23:38:00,
2013-01-01 15:53:00,37.3,35.0,30.46,ENE,57,0.0,1.0,91,0.00,,,0.00,weatherlink.com 1.10,2013-01-01 23:53:00,
2013-01-01 16:08:00,37.1,35.0,30.46,ENE,57,0.0,1.0,91,0.00,,,0.00,weatherlink.com 1.10,2013-01-02 00:08:00,
2013-01-01 16:23:00,37.0,35.0,30.46,ENE,57,1.0,2.0,92,0.00,,,0.00,weatherlink.com 1.10,2013-01-02 00:23:00,
2013-01-01 16:38:00,36.6,35.0,30.45,ENE,57,0.0,1.0,93,0.00,,,0.00,weatherlink.com 1.10,2013-01-02 00:38:00,
2013-01-01 16:53:00,36.1,34.0,30.45,ENE,57,1.0,2.0,93,0.00,,,0.00,weatherlink.com 1.10,2013-01-02 00:53:00,
2013-01-01 17:08:00,35.4,34.0,30.44,ENE,57,1.0,3.0,94,0.00,,,0.00,weatherlink.com 1.10,2013-01-02 01:08:00,
2013-01-01 17:38:00,35.4,34.0,30.43,ENE,58,0.0,3.0,96,0.00,,,0.00,weatherlink.com 1.10,2013-01-02 01:38:00,
2013-01-01 17:53:00,36.1,35.0,30.43,East,83,3.0,4.0,95,0.00,,,0.00,weatherlink.com 1.10,2013-01-02 01:53:00,
2013-01-01 18:08:00,36.4,35.0,30.43,ESE,113,3.0,4.0,95,0.00,,,0.00,weatherlink.com 1.10,2013-01-02 02:08:00,
2013-01-01 18:23:00,36.6,35.0,30.42,ENE,75,1.0,4.0,94,0.00,,,0.00,weatherlink.com 1.10,2013-01-02 02:23:00,
2013-01-01 18:38:00,36.6,35.0,30.42,East,85,2.0,6.0,94,0.00,,,0.00,weatherlink.com 1.10,2013-01-02 02:38:00,
2013-01-01 18:53:00,36.8,35.0,30.41,East,100,1.0,6.0,93,0.00,,,0.00,weatherlink.com 1.10,2013-01-02 02:53:00,
2013-01-01 19:08:00,36.9,35.0,30.41,ENE,76,0.0,3.0,93,0.00,,,0.00,weatherlink.com 1.10,2013-01-02 03:08:00,
2013-01-01 19:23:00,37.0,36.0,30.41,East,89,0.0,5.0,94,0.00,,,0.00,weatherlink.com 1.10,2013-01-02 03:23:00,
2013-01-01 19:38:00,37.0,35.0,30.41,ENE,73,5.0,5.0,93,0.00,,,0.00,weatherlink.com 1.10,2013-01-02 03:38:00,
2013-01-01 19:53:00,37.1,35.0,30.41,ENE,71,3.0,5.0,93,0.00,,,0.00,weatherlink.com 1.10,2013-01-02 03:53:00,
2013-01-01 20:08:00,37.3,35.0,30.40,ENE,77,3.0,7.0,92,0.00,,,0.00,weatherlink.com 1.10,2013-01-02 04:08:00,
2013-01-01 20:23:00,37.4,35.0,30.40,NE,56,4.0,7.0,92,0.00,,,0.00,weatherlink.com 1.10,2013-01-02 04:23:00,
2013-01-01 20:38:00,37.6,36.0,30.39,East,95,5.0,6.0,92,0.00,,,0.00,weatherlink.com 1.10,2013-01-02 04:38:00,
2013-01-01 20:53:00,37.6,36.0,30.39,East,83,2.0,6.0,92,0.00,,,0.00,weatherlink.com 1.10,2013-01-02 04:53:00,
2013-01-01 21:08:00,37.5,35.0,30.39,NE,53,2.0,6.0,92,0.00,,,0.00,weatherlink.com 1.10,2013-01-02 05:08:00,
2013-01-01 21:23:00,37.5,35.0,30.40,ENE,68,1.0,5.0,92,0.00,,,0.00,weatherlink.com 1.10,2013-01-02 05:23:00,
2013-01-01 21:38:00,37.4,35.0,30.40,ENE,66,0.0,5.0,92,0.00,,,0.00,weatherlink.com 1.10,2013-01-02 05:38:00,
2013-01-01 21:53:00,37.3,35.0,30.39,ENE,78,2.0,3.0,92,0.00,,,0.00,weatherlink.com 1.10,2013-01-02 05:53:00,
2013-01-01 22:08:00,37.3,35.0,30.39,SE,133,4.0,8.0,90,0.00,,,0.00,weatherlink.com 1.10,2013-01-02 06:08:00,
2013-01-01 22:23:00,37.1,34.0,30.39,NE,56,1.0,6.0,88,0.00,,,0.00,weatherlink.com 1.10,2013-01-02 06:23:00,
2013-01-01 22:38:00,36.8,34.0,30.39,ENE,78,2.0,6.0,88,0.00,,,0.00,weatherlink.com 1.10,2013-01-02 06:38:00,
2013-01-01 22:53:00,36.9,33.0,30.39,NE,56,0.0,4.0,87,0.00,,,0.00,weatherlink.com 1.10,2013-01-02 06:53:00,
2013-01-01 23:08:00,36.8,33.0,30.39,East,85,1.0,3.0,87,0.00,,,0.00,weatherlink.com 1.10,2013-01-02 07:08:00,
2013-01-01 23:23:00,36.6,33.0,30.38,NE,56,7.0,7.0,88,0.00,,,0.00,weatherlink.com 1.10,2013-01-02 07:23:00,
2013-01-01 23:38:00,36.8,33.0,30.39,ENE,70,0.0,9.0,87,0.00,,,0.00,weatherlink.com 1.10,2013-01-02 07:38:00,